Location: Unspecified
(0.0000°N, 1.0000°E)
Time: 11:26:19
(UTC+02:00)

Amateur Radio Satellites - All Passes

Search period start: 25 May 2015 10:56
Search period end: 26 May 2015 10:56
Location: Unspecified, 0.0000°N, 1.0000°E

Satellite Date Start Highest point End Downlink Frequencies (MHz)
Time Altitude Azimuth
ZACube-1 25 May 10:57:13 11:00:26 22° 100° (E) 11:03:44 437.345
UKube-1 25 May 11:06:19 11:06:59 10° 100° (E) 11:08:01 .
DX 1 25 May 11:10:14 11:12:26 14° 101° (E) 11:14:54 434.975-435.025
HUMSAT D 25 May 11:11:25 11:12:52 12° 100° (E) 11:14:37 437.325/437.525
CANX-2 25 May 11:12:36 11:14:58 14° 280° (W) 11:17:05 2200.000
Oscar 11 25 May 11:13:53 11:18:11 88° 274° (W) 11:22:30 145.826/435.025
UNISAT 6 25 May 11:14:41 11:16:59 14° 80° (E) 11:19:36 437.425
CINEMA 3 25 May 11:15:00 11:19:11 40° 282° (WNW) 11:23:12 145.822/145.860
CUTE 1.7 + AOD 2 25 May 11:16:29 11:18:52 14° 280° (W) 11:21:00 437.475
DELFI C3 25 May 11:18:42 11:22:41 73° 101° (E) 11:26:43 145.870
RS-15 25 May 11:21:12 11:28:27 18° 296° (WNW) 11:34:44 29.354- 29.394
DOVE 4 25 May 11:22:20 11:25:02 14° 281° (WNW) 11:27:23 437.250
JUGNU 25 May 11:22:25 11:26:46 20° 345° (NNW) 11:31:01 437.505
HO-68 25 May 11:34:48 11:40:00 21° 283° (WNW) 11:44:49 435.675
UWE-3 25 May 11:36:50 11:41:01 63° 281° (WNW) 11:45:08 435.000/436.395/437.385
Cosmos 2504 25 May 11:38:28 11:47:16 69° 274° (W) 11:55:37 435.465 / 435.565
QB50P1 25 May 11:44:54 11:46:00 11° 80° (E) 11:47:25 145.935-145.965
POLYITAN 1 25 May 11:45:18 11:46:44 12° 80° (E) 11:48:28 437.675
AISAT 25 May 11:45:33 11:48:39 19° 101° (E) 11:51:55 437.250
FUNcube-1 25 May 11:52:59 11:57:03 51° 281° (W) 12:01:04 145.935
ANTELSAT 25 May 11:55:44 12:00:19 53° 79° (ENE) 12:04:55 437.575/2403.000
VERMONT LUNAR 25 May 12:01:28 12:04:31 42° 43° (NE) 12:07:37 437.305
NANOSAT C BR1 25 May 12:14:31 12:18:16 31° 79° (E) 12:22:04 145.865
QB50P2 25 May 12:20:38 12:24:38 41° 79° (ENE) 12:28:40 145.880/145.840
CUBEBUG 2 25 May 12:24:26 12:25:31 11° 280° (W) 12:26:16 437.445
TIGRISAT 25 May 12:29:34 12:34:10 55° 259° (WSW) 12:38:45 435.000
POPSAT HIP 1 25 May 12:33:15 12:37:28 62° 79° (ENE) 12:41:40 437.405
SRMSAT 25 May 12:34:29 12:39:20 25° 343° (NNW) 12:44:05 437.500
ZACube-1 25 May 12:34:34 12:36:41 13° 280° (W) 12:38:32 437.345
50 SAT 25 May 12:36:03 12:39:51 64° 281° (W) 12:43:40 437.505
DUCHIFAT 1 25 May 12:37:01 12:41:13 69° 79° (E) 12:45:26 145.980
UKube-1 25 May 12:39:10 12:43:01 31° 281° (WNW) 12:46:50 .
ESTCUBE 1 25 May 12:43:59 12:48:28 63° 102° (ESE) 12:52:59 437.505/2401.250
DX 1 25 May 12:44:59 12:48:34 24° 281° (W) 12:52:03 434.975-435.025
HUMSAT D 25 May 12:45:11 12:48:31 23° 280° (W) 12:51:44 437.325/437.525
UNISAT 6 25 May 12:49:34 12:53:39 29° 259° (W) 12:57:39 437.425
VELOX 1 25 May 12:49:53 12:54:13 52° 282° (WNW) 12:58:34 145.980
CUBEBUG 1 25 May 12:54:19 12:58:44 74° 101° (E) 13:03:10 437.445
PCSat 25 May 12:57:34 13:02:41 46° 70° (ENE) 13:07:52 145.827
BUGSAT 1 25 May 13:10:07 13:14:07 60° 258° (WSW) 13:18:09 437.445
JUGNU 25 May 13:15:08 13:16:38 11° 353° (N) 13:18:04 437.505
QB50P1 25 May 13:18:05 13:21:46 28° 259° (W) 13:25:22 145.935-145.965
POLYITAN 1 25 May 13:18:53 13:22:32 27° 259° (W) 13:26:07 437.675
AISAT 25 May 13:21:54 13:25:06 19° 281° (W) 13:28:08 437.250
GONETS M04 25 May 13:29:08 13:36:10 28° 95° (E) 13:43:33
CUSAT 1 25 May 13:34:27 13:39:14 34° 92° (E) 13:45:22 437.405
PHONESAT 2.4 25 May 13:41:10 13:44:38 79° 223° (SW) 13:48:08 2401.200-2431.200
SPROUT 25 May 13:41:34 13:45:50 65° 101° (E) 13:50:06 437.525
Oscar 19 25 May 14:07:28 14:10:27 16° 79° (E) 14:13:44 437.125/150
TISAT 1 25 May 14:13:16 14:17:28 63° 281° (WNW) 14:21:39 437.305
BEESAT 25 May 14:16:18 14:17:46 12° 100° (E) 14:19:36 436.000
SWISSCUBE 25 May 14:23:01 14:25:57 17° 101° (E) 14:29:09 437.505
SRMSAT 25 May 14:26:47 14:29:13 12° 351° (N) 14:31:33 437.500
DANDE 25 May 14:31:11 14:36:07 82° 275° (W) 14:42:48 436.750
PCSat 25 May 14:44:23 14:46:06 11° 247° (WSW) 14:47:22 145.827
SO-50 25 May 15:17:28 15:22:12 59° 68° (ENE) 15:26:50 436.795
CUSAT 1 25 May 15:18:05 15:22:04 18° 283° (WNW) 15:26:19 437.405
GONETS M04 25 May 15:24:55 15:32:54 37° 275° (W) 15:40:39
ITUPSAT 1 25 May 15:41:52 15:46:29 48° 281° (WNW) 15:51:06 437.325
Oscar 19 25 May 15:45:08 15:49:42 31° 259° (WSW) 15:54:10 437.125/150
BEESAT 25 May 15:51:09 15:55:30 35° 281° (WNW) 15:59:50 436.000
ITAMSAT 1 25 May 15:54:08 15:59:17 71° 78° (ENE) 16:04:25 435.822/435.867
SWISSCUBE 25 May 15:59:46 16:03:42 25° 281° (W) 16:07:31 437.505
STARS 25 May 16:01:28 16:04:19 18° 101° (E) 16:07:22 437.465
JAS-2 25 May 16:02:05 16:04:46 13° 82° (E) 16:08:03 435.910
Cosmos 2499 25 May 16:13:25 16:22:13 78° 94° (E) 16:30:27 435.465 / 435.565
Gurwin Techsat 1B 25 May 16:20:02 16:25:17 62° 258° (WSW) 16:30:31 435.225
O/OREOS (USA 219) 25 May 16:22:33 16:27:08 86° 284° (WNW) 16:31:40 437.305
KKS-1 25 May 16:27:08 16:31:35 81° 102° (ESE) 16:36:02 437.445
JUGNU 25 May 16:53:10 16:56:45 17° 13° (NNE) 17:00:26 437.505
AO-7 25 May 17:15:50 17:23:51 56° 75° (ENE) 17:31:55 29.400- 29.500
HORYU 2 25 May 17:32:18 17:36:45 60° 258° (WSW) 17:41:11 437.375
STARS 25 May 17:37:27 17:40:39 19° 281° (W) 17:43:43 437.465
MOZHAYETS 4 25 May 17:42:20 17:46:21 32° 101° (E) 17:50:29
JAS-2 25 May 17:42:24 17:50:02 67° 258° (WSW) 17:56:56 435.910
BEESAT 3 25 May 17:49:18 17:52:50 31° 113° (ESE) 17:56:27 437.485
SRMSAT 25 May 18:06:45 18:09:43 14° 11° (N) 18:12:48 437.500
Cosmos 2499 25 May 18:12:59 18:15:17 11° 275° (W) 18:16:29 435.465 / 435.565
AIST 2 25 May 18:16:11 18:16:26 10° 114° (ESE) 18:17:01 435.215
BEESAT 2 25 May 18:34:59 18:38:58 68° 291° (WNW) 18:43:01 435.950
JUGNU 25 May 18:40:49 18:46:13 38° 19° (NNE) 18:51:38 437.505
AO-7 25 May 19:10:59 19:16:34 19° 256° (WSW) 19:21:33 29.400- 29.500
Cosmos 2491 25 May 19:15:38 19:20:11 16° 96° (E) 19:25:32 435.465 / 435.565
CUBESAT XI-V 25 May 19:16:08 19:19:50 24° 101° (E) 19:23:40 437.345
MOZHAYETS 4 25 May 19:21:47 19:23:31 12° 279° (W) 19:24:52
CUTE-I 25 May 19:32:20 19:37:21 45° 78° (ENE) 19:42:24 437.470
YUBILEINY 25 May 19:38:29 19:44:55 25° 85° (E) 19:51:50 435.215
STRAND 1 25 May 19:49:49 19:53:41 22° 101° (ESE) 19:57:44 437.568
PRISM 25 May 19:51:02 19:54:22 24° 101° (E) 19:57:50 437.425
AIST 2 25 May 19:51:12 19:54:55 30° 293° (WNW) 19:58:37 435.215
Cubesat XI-IV 25 May 19:52:04 19:57:23 80° 79° (E) 20:02:42 437.490
SRMSAT 25 May 19:54:23 19:59:30 30° 18° (NNE) 20:04:41 437.500
M-CUBED/EXP-1 PRIME 25 May 20:15:54 20:18:27 20° 106° (ESE) 20:21:13 437.505
AUBIESAT-1 25 May 20:25:35 20:28:23 24° 106° (ESE) 20:31:23 437.475
JUGNU 25 May 20:29:26 20:35:17 77° 201° (SSW) 20:41:10 437.505
BRITE-PL 25 May 20:44:38 20:46:43 13° 78° (ENE) 20:49:12 437.365/2234.400
RS-15 25 May 20:45:45 20:57:27 59° 68° (ENE) 21:09:30 29.354- 29.394
CUBESAT XI-V 25 May 20:54:01 20:57:09 17° 280° (W) 21:00:04 437.345
GOMX 1 25 May 20:57:26 20:58:20 11° 79° (ENE) 20:59:40 467.674
Cosmos 2491 25 May 21:08:29 21:17:04 59° 274° (W) 21:25:36 435.465 / 435.565
CUTE-I 25 May 21:15:44 21:17:22 11° 259° (W) 21:18:32 437.470
PRISM 25 May 21:27:44 21:29:43 13° 280° (W) 21:31:25 437.425
STRAND 1 25 May 21:28:46 21:32:46 22° 281° (W) 21:36:36 437.568
YUBILEINY 25 May 21:33:35 21:41:38 41° 265° (W) 21:49:35 435.215
HO-68 25 May 21:37:38 21:44:00 36° 77° (ENE) 21:50:28 435.675
CANX-2 25 May 21:42:27 21:46:06 28° 80° (E) 21:49:48 2200.000
SRMSAT 25 May 21:42:52 21:48:49 81° 20° (NNE) 21:54:50 437.500
CUTE 1.7 + AOD 2 25 May 21:46:18 21:49:56 27° 80° (E) 21:53:36 437.475
CINEMA 3 25 May 21:55:29 21:58:17 16° 79° (E) 22:01:25 145.822/145.860
AIST 1 25 May 21:58:45 22:02:57 60° 274° (W) 22:07:08
Cosmos 2504 25 May 22:00:50 22:04:22 15° 85° (E) 22:08:37 435.465 / 435.565
DOVE 4 25 May 22:03:01 22:07:33 51° 78° (ENE) 22:12:23 437.250
ISS 25 May 22:08:17 22:10:55 23° 127° (SE) 22:13:36 145.825
SEEDS 25 May 22:11:10 22:15:18 49° 79° (E) 22:19:25 437.485
JUGNU 25 May 22:19:26 22:24:28 29° 198° (SSW) 22:29:28 437.505
BRITE-PL 25 May 22:21:10 22:25:05 28° 261° (W) 22:29:09 437.365/2234.400
COMPASS 1 25 May 22:27:08 22:31:20 65° 79° (E) 22:35:29 437.405
GOMX 1 25 May 22:31:59 22:36:16 37° 260° (W) 22:40:47 467.674
AAUSAT CUBESAT 2 25 May 22:40:43 22:44:57 86° 79° (E) 22:49:08 437.432
CUBEBUG 2 25 May 22:57:01 23:01:28 46° 79° (ENE) 23:06:01 437.445
RS-15 25 May 23:00:19 23:10:05 26° 245° (WSW) 23:19:12 29.354- 29.394
ZACube-1 25 May 23:06:29 23:10:34 34° 79° (E) 23:14:45 437.345
UKube-1 25 May 23:13:54 23:16:04 14° 80° (E) 23:18:29 .
HUMSAT D 25 May 23:15:54 23:18:27 16° 80° (E) 23:21:13 437.325/437.525
DX 1 25 May 23:19:21 23:22:21 19° 79° (E) 23:25:30 434.975-435.025
DELFI C3 25 May 23:19:22 23:23:26 75° 79° (E) 23:27:27 145.870
CANX-2 25 May 23:20:17 23:21:54 12° 260° (W) 23:23:13 2200.000
Oscar 11 25 May 23:22:50 23:27:10 65° 259° (WSW) 23:31:28 145.826/435.025
CUTE 1.7 + AOD 2 25 May 23:24:04 23:25:44 12° 260° (W) 23:27:03 437.475
HO-68 25 May 23:25:48 23:31:36 25° 257° (WSW) 23:37:05 435.675
UNISAT 6 25 May 23:27:43 23:30:38 19° 100° (E) 23:33:43 437.425
CINEMA 3 25 May 23:31:20 23:35:20 26° 260° (W) 23:39:20 145.822/145.860
SRMSAT 25 May 23:32:37 23:38:06 37° 199° (SSW) 23:43:36 437.500
VERMONT LUNAR 25 May 23:34:02 23:36:55 28° 138° (SE) 23:39:48 437.305
UWE-3 25 May 23:47:58 23:52:22 45° 259° (W) 23:56:49 435.000/436.395/437.385
QB50P1 25 May 23:50:32 23:52:38 14° 100° (E) 23:54:58 145.935-145.965
Cosmos 2504 25 May 23:50:42 23:57:37 49° 265° (W) 00:04:50 435.465 / 435.565
POLYITAN 1 25 May 23:51:27 23:53:42 15° 100° (E) 23:56:11 437.675
AISAT 25 May 23:57:15 00:00:59 28° 79° (E) 00:04:48 437.250
FUNcube-1 26 May 00:02:40 00:06:55 39° 259° (W) 00:11:09 145.935
ANTELSAT 26 May 00:09:40 00:13:56 81° 100° (E) 00:18:12 437.575/2403.000
JUGNU 26 May 00:11:10 00:14:07 14° 190° (S) 00:16:59 437.505
NANOSAT C BR1 26 May 00:20:44 00:24:40 39° 101° (ESE) 00:28:38 145.865
QB50P2 26 May 00:27:20 00:31:27 52° 101° (E) 00:35:36 145.880/145.840
50 SAT 26 May 00:33:32 00:37:34 71° 258° (WSW) 00:41:33 437.505
POPSAT HIP 1 26 May 00:39:54 00:44:08 79° 100° (E) 00:48:23 437.405
DUCHIFAT 1 26 May 00:43:11 00:47:25 85° 101° (ESE) 00:51:39 145.980
TIGRISAT 26 May 00:43:42 00:47:33 32° 281° (W) 00:51:20 435.000
ZACube-1 26 May 00:45:31 00:46:50 11° 261° (W) 00:47:48 437.345
UKube-1 26 May 00:48:36 00:52:05 23° 259° (W) 00:55:27 .
HUMSAT D 26 May 00:50:44 00:54:04 21° 260° (W) 00:57:16 437.325/437.525
DX 1 26 May 00:55:30 00:58:29 17° 259° (W) 01:01:16 434.975-435.025
ESTCUBE 1 26 May 00:58:26 01:02:56 81° 258° (WSW) 01:07:23 437.505/2401.250
VELOX 1 26 May 01:02:19 01:06:21 34° 259° (W) 01:10:19 145.980
UNISAT 6 26 May 01:04:29 01:07:19 17° 280° (W) 01:09:57 437.425
CUBEBUG 1 26 May 01:04:52 01:09:11 78° 257° (WSW) 01:13:30 437.445
VERMONT LUNAR 26 May 01:12:16 01:14:04 14° 319° (NW) 01:15:44 437.305
BUGSAT 1 26 May 01:13:42 01:17:49 53° 282° (WNW) 01:21:55 437.445
PHONESAT 2.4 26 May 01:20:03 01:23:35 82° 139° (SE) 01:27:05 2401.200-2431.200
SRMSAT 26 May 01:24:01 01:27:48 17° 193° (SSW) 01:31:31 437.500
QB50P1 26 May 01:25:00 01:28:23 22° 281° (W) 01:31:39 145.935-145.965
POLYITAN 1 26 May 01:26:12 01:29:29 21° 281° (W) 01:32:39 437.675
PCSat 26 May 01:33:40 01:38:57 55° 290° (WNW) 01:44:13 145.827
AISAT 26 May 01:35:29 01:37:28 12° 260° (W) 01:39:09 437.250
DANDE 26 May 01:39:44 01:44:34 26° 78° (ENE) 01:48:34 436.750
SPROUT 26 May 01:49:45 01:54:03 86° 82° (E) 01:58:22 437.525
GONETS M04 26 May 02:01:31 02:09:57 56° 86° (E) 02:18:26
TISAT 1 26 May 02:19:20 02:23:26 51° 259° (WSW) 02:27:31 437.305
CUSAT 1 26 May 02:21:01 02:26:18 59° 266° (W) 02:30:14 437.405
ITUPSAT 1 26 May 02:28:20 02:31:18 17° 80° (E) 02:34:30 437.325
BEESAT 26 May 02:36:22 02:40:01 23° 79° (E) 02:43:48 436.000
Oscar 19 26 May 02:39:29 02:44:15 41° 102° (ESE) 02:49:05 437.125/150
SWISSCUBE 26 May 02:44:06 02:48:18 32° 79° (E) 02:52:33 437.505
ITAMSAT 1 26 May 02:53:28 02:54:51 11° 101° (E) 02:56:41 435.822/435.867
SRMSAT 26 May 03:17:08 03:18:00 10° 183° (S) 03:18:50 437.500
Gurwin Techsat 1B 26 May 03:19:48 03:23:57 24° 101° (ESE) 03:28:17 435.225
DANDE 26 May 03:23:54 03:27:26 16° 270° (W) 03:30:11 436.750
SO-50 26 May 03:30:17 03:34:43 74° 293° (WNW) 03:39:17 436.795
JUGNU 26 May 03:51:42 03:54:21 13° 170° (S) 03:57:06 437.505
GONETS M04 26 May 04:01:16 04:06:46 17° 264° (W) 04:11:34
ITUPSAT 1 26 May 04:05:12 04:09:06 24° 259° (WSW) 04:12:50 437.325
STARS 26 May 04:12:04 04:15:40 25° 79° (E) 04:19:23 437.465
BEESAT 26 May 04:14:24 04:17:45 18° 259° (W) 04:20:52 436.000
Oscar 19 26 May 04:21:46 04:23:32 11° 280° (W) 04:24:53 437.125/150
Cosmos 2499 26 May 04:23:24 04:30:34 85° 267° (W) 04:38:16 435.465 / 435.565
SWISSCUBE 26 May 04:23:53 04:26:03 13° 259° (W) 04:27:52 437.505
ITAMSAT 1 26 May 04:29:19 04:34:16 43° 282° (WNW) 04:39:12 435.822/435.867
O/OREOS (USA 219) 26 May 04:33:39 04:37:58 48° 255° (WSW) 04:42:19 437.305
KKS-1 26 May 04:39:53 04:44:19 66° 258° (WSW) 04:48:44 437.445
Gurwin Techsat 1B 26 May 04:59:45 05:03:49 22° 281° (W) 05:07:41 435.225
SRMSAT 26 May 05:06:24 05:08:21 12° 173° (S) 05:10:22 437.500
JAS-2 26 May 05:15:22 05:20:43 65° 103° (ESE) 05:26:42 435.910
JUGNU 26 May 05:39:09 05:44:05 27° 163° (SSE) 05:49:05 437.505
AO-7 26 May 05:41:51 05:50:13 88° 103° (ESE) 05:58:38 29.400- 29.500
BEESAT 3 26 May 05:43:48 05:47:24 34° 67° (ENE) 05:51:00 437.485
HORYU 2 26 May 05:45:24 05:49:31 38° 282° (WNW) 05:53:37 437.375
STARS 26 May 05:49:39 05:52:01 14° 260° (W) 05:54:05 437.465
MOZHAYETS 4 26 May 05:58:54 06:03:25 55° 79° (ENE) 06:07:55
AIST 2 26 May 06:13:48 06:15:24 12° 65° (ENE) 06:17:15 435.215
BEESAT 2 26 May 06:30:23 06:34:19 59° 248° (WSW) 06:38:11 435.950
SRMSAT 26 May 06:53:56 06:58:23 22° 165° (SSE) 07:02:54 437.500
Cubesat XI-IV 26 May 06:54:04 06:56:57 15° 101° (E) 07:00:11 437.490
JUGNU 26 May 07:27:22 07:33:21 69° 159° (SSE) 07:39:20 437.505
CUBESAT XI-V 26 May 07:34:09 07:38:28 41° 79° (E) 07:42:47 437.345
Cosmos 2491 26 May 07:46:39 07:54:15 35° 85° (E) 08:02:04 435.465 / 435.565
AIST 2 26 May 07:50:32 07:53:52 23° 247° (WSW) 07:57:06 435.215
PRISM 26 May 07:54:45 07:58:11 26° 79° (E) 08:01:39 437.425
YUBILEINY 26 May 08:10:22 08:18:46 50° 94° (E) 08:27:12 435.215
CUTE-I 26 May 08:11:26 08:16:44 61° 282° (WNW) 08:22:03 437.470
M-CUBED/EXP-1 PRIME 26 May 08:17:07 08:21:09 29° 77° (ENE) 08:25:04 437.505
STRAND 1 26 May 08:21:31 08:26:29 56° 78° (ENE) 08:31:28 437.568
AUBIESAT-1 26 May 08:26:24 08:30:33 33° 76° (ENE) 08:34:32 437.475
RS-15 26 May 08:29:35 08:39:56 47° 113° (ESE) 08:50:14 29.354- 29.394
Cubesat XI-IV 26 May 08:32:05 08:36:57 35° 282° (WNW) 08:41:46 437.490
SRMSAT 26 May 08:42:05 08:47:54 52° 160° (SSE) 08:53:43 437.500
BRITE-PL 26 May 09:09:48 09:14:30 34° 100° (E) 09:18:59 437.365/2234.400
JUGNU 26 May 09:16:46 09:22:27 44° 340° (NNW) 09:28:07 437.505
GOMX 1 26 May 09:19:09 09:22:57 23° 99° (E) 09:26:44 467.674
HO-68 26 May 09:29:33 09:35:28 30° 103° (ESE) 09:41:36 435.675
PRISM 26 May 09:32:24 09:33:31 11° 260° (W) 09:34:19 437.425
ISS 26 May 09:42:23 09:44:15 15° 53° (NE) 09:46:15 145.825
Cosmos 2491 26 May 09:43:33 09:50:59 30° 265° (W) 09:58:06 435.465 / 435.565
CANX-2 26 May 09:49:02 09:52:49 34° 101° (E) 09:56:41 2200.000
CUTE 1.7 + AOD 2 26 May 09:52:47 09:56:34 33° 101° (E) 10:00:25 437.475
M-CUBED/EXP-1 PRIME 26 May 09:53:06 09:55:46 14° 255° (WSW) 09:58:06 437.505
AUBIESAT-1 26 May 10:02:58 10:05:05 12° 255° (WSW) 10:06:51 437.475
AIST 1 26 May 10:05:32 10:09:42 42° 265° (W) 10:13:52
YUBILEINY 26 May 10:09:16 10:15:32 20° 276° (W) 10:21:09 435.215
Cosmos 2504 26 May 10:09:53 10:16:40 26° 96° (E) 10:23:35 435.465 / 435.565
CINEMA 3 26 May 10:11:55 10:15:23 24° 100° (E) 10:18:52 145.822/145.860
SEEDS 26 May 10:16:54 10:21:00 61° 101° (E) 10:25:10 437.485
DOVE 4 26 May 10:24:32 10:29:18 81° 283° (WNW) 10:33:47 437.250
UWE-3 26 May 10:27:17 10:27:36 10° 99° (E) 10:28:17 435.000/436.395/437.385
SRMSAT 26 May 10:31:17 10:37:09 57° 339° (NNW) 10:42:58 437.500
COMPASS 1 26 May 10:31:58 10:36:06 78° 101° (E) 10:40:17 437.405
FUNcube-1 26 May 10:39:37 10:40:44 11° 99° (E) 10:42:11 145.935
AAUSAT CUBESAT 2 26 May 10:45:06 10:49:14 81° 280° (W) 10:53:24 437.432
BRITE-PL 26 May 10:49:52 10:52:49 14° 282° (WNW) 10:55:21 437.365/2234.400
